Terminal Aerodrome Forecast
Issued by NWS Billings, MT

Home | Current Version | Previous Version | Graphics & Text | Print | Product List | Glossary On
Versions: 1 2 3 4 5 6 7 8 9 10 11 12 13 14 15 16 17 18 19 20 21 22 23 24 25 26 27
000
FTUS45 KBYZ 230857 AAB
TAFMLS
TAF AMD
KMLS 230857Z 2309/2406 08004KT 2SM BR VV002
      TEMPO 2309/2313 1/2SM FZFG
     FM231830 03007KT 4SM BR SCT002 OVC007
     FM240400 01006KT 3SM -SN BR OVC003=

USA.gov is the U.S. government's official web portal to all federal, state and local government web resources and services.